• In Netherlands
  • List of Countries
  • For 7 days
  • Water Temperature
  • Satellite Maps
  • Weather Map
  • Weather Widgets
  • user-avatar
    Login

    Hourly Weather Ropotamo

    Today, 25 June, Sunday

    Time Temperature Precipitation Wind Pressure Humidity
    00:00 +21°C° 0 mm 2 mps 758 mmHg 83%
    01:00 +20°C° 0 mm 2 mps 758 mmHg 84%
    02:00 +20°C° 0 mm 2 mps 757 mmHg 85%
    03:00 +20°C° 0 mm 2 mps 757 mmHg 85%
    04:00 +21°C° 0 mm 1 mps 757 mmHg 86%
    05:00 +21°C° 0 mm 1 mps 757 mmHg 86%
    06:00 +23°C° 0 mm 1 mps 758 mmHg 76%
    07:00 +26°C° 0 mm 1 mps 758 mmHg 66%
    08:00 +28°C° 0 mm 1 mps 758 mmHg 56%
    09:00 +30°C° 0 mm 2 mps 758 mmHg 52%
    10:00 +31°C° 0 mm 2 mps 758 mmHg 48%
    11:00 +33°C° 0 mm 3 mps 758 mmHg 43%
    12:00 +33°C° 0 mm 4 mps 758 mmHg 43%
    13:00 +33°C° 0 mm 4 mps 758 mmHg 42%
    14:00 +33°C° 0 mm 5 mps 757 mmHg 41%
    15:00 +33°C° 0 mm 5 mps 757 mmHg 44%
    16:00 +32°C° 0 mm 5 mps 757 mmHg 47%
    17:00 +30°C° 0 mm 5 mps 757 mmHg 49%
    18:00 +28°C° 0 mm 4 mps 757 mmHg 58%
    19:00 +26°C° 0 mm 4 mps 757 mmHg 67%
    20:00 +22°C° 0 mm 3 mps 757 mmHg 75%
    21:00 +21°C° 0 mm 3 mps 757 mmHg 78%
    22:00 +21°C° 0 mm 3 mps 757 mmHg 80%
    23:00 +20°C° 0 mm 2 mps 757 mmHg 82%

    Tomorrow, 26 June, Monday

    Time Temperature Precipitation Wind Pressure Humidity
    00:00 +19°C° 0 mm 2 mps 757 mmHg 84%
    01:00 +18°C° 0 mm 2 mps 757 mmHg 86%
    02:00 +19°C° 0 mm 1 mps 757 mmHg 87%
    03:00 +19°C° 0 mm 1 mps 756 mmHg 87%
    04:00 +19°C° 0 mm 1 mps 756 mmHg 87%
    05:00 +18°C° 0 mm 1 mps 756 mmHg 87%
    06:00 +21°C° 0 mm 1 mps 756 mmHg 78%
    07:00 +24°C° 0 mm 1 mps 756 mmHg 69%
    08:00 +27°C° 0 mm 1 mps 756 mmHg 60%
    09:00 +28°C° 0 mm 2 mps 756 mmHg 56%
    10:00 +29°C° 0 mm 3 mps 756 mmHg 52%
    11:00 +30°C° 0 mm 3 mps 756 mmHg 47%
    12:00 +31°C° 0 mm 3 mps 756 mmHg 47%
    13:00 +32°C° 0 mm 4 mps 755 mmHg 46%
    14:00 +32°C° 0 mm 4 mps 755 mmHg 46%
    15:00 +32°C° 0 mm 4 mps 755 mmHg 49%
    16:00 +30°C° 0 mm 4 mps 755 mmHg 52%
    17:00 +29°C° 0 mm 4 mps 754 mmHg 55%
    18:00 +27°C° 0 mm 3 mps 754 mmHg 65%
    19:00 +24°C° 0 mm 3 mps 755 mmHg 76%
    20:00 +21°C° 0 mm 3 mps 755 mmHg 86%
    21:00 +20°C° 0 mm 2 mps 755 mmHg 88%
    22:00 +19°C° 0 mm 2 mps 755 mmHg 89%
    23:00 +19°C° 0 mm 1 mps 755 mmHg 90%

    Day after tomorrow, 27 June, Tuesday

    Time Temperature Precipitation Wind Pressure Humidity
    00:00 +19°C° 0 mm 1 mps 755 mmHg 91%
    01:00 +18°C° 0 mm 1 mps 755 mmHg 91%
    02:00 +16°C° 0 mm 0 mps 755 mmHg 91%
    03:00 +18°C° 0 mm 1 mps 755 mmHg 90%
    04:00 +18°C° 0 mm 1 mps 755 mmHg 89%
    05:00 +19°C° 0 mm 1 mps 755 mmHg 88%
    06:00 +21°C° 0 mm 1 mps 755 mmHg 78%
    07:00 +24°C° 0 mm 1 mps 755 mmHg 68%
    08:00 +27°C° 0 mm 1 mps 756 mmHg 58%
    09:00 +28°C° 0 mm 2 mps 756 mmHg 54%
    10:00 +30°C° 0 mm 2 mps 756 mmHg 50%
    11:00 +31°C° 0 mm 3 mps 756 mmHg 46%
    12:00 +31°C° 0 mm 3 mps 755 mmHg 45%
    13:00 +33°C° 0 mm 3 mps 755 mmHg 43%
    14:00 +33°C° 0 mm 4 mps 755 mmHg 41%
    15:00 +32°C° 0 mm 4 mps 755 mmHg 44%
    16:00 +32°C° 0 mm 4 mps 755 mmHg 47%
    17:00 +30°C° 0 mm 3 mps 754 mmHg 49%
    18:00 +27°C° 0 mm 3 mps 755 mmHg 61%
    19:00 +24°C° 0 mm 3 mps 755 mmHg 73%
    20:00 +20°C° 0 mm 2 mps 755 mmHg 85%
    21:00 +19°C° 0 mm 2 mps 755 mmHg 87%
    22:00 +18°C° 0 mm 2 mps 755 mmHg 90%
    23:00 +18°C° 0 mm 1 mps 755 mmHg 92%

    28 June, Wednesday

    Time Temperature Precipitation Wind Pressure Humidity
    00:00 +18°C° 0 mm 1 mps 755 mmHg 92%
    01:00 +16°C° 0 mm 1 mps 755 mmHg 92%
    02:00 +15°C° 0 mm 0 mps 755 mmHg 92%
    03:00 +15°C° 0 mm 0 mps 755 mmHg 91%
    04:00 +16°C° 0 mm 1 mps 755 mmHg 91%
    05:00 +16°C° 0 mm 1 mps 755 mmHg 90%
    06:00 +20°C° 0 mm 1 mps 755 mmHg 81%
    07:00 +23°C° 0 mm 1 mps 755 mmHg 71%
    08:00 +27°C° 0 mm 1 mps 755 mmHg 62%
    09:00 +28°C° 0 mm 2 mps 755 mmHg 56%
    10:00 +30°C° 0 mm 2 mps 755 mmHg 50%
    11:00 +31°C° 0 mm 2 mps 755 mmHg 44%
    12:00 +33°C° 0 mm 3 mps 755 mmHg 44%
    13:00 +33°C° 0 mm 3 mps 754 mmHg 43%
    14:00 +34°C° 0 mm 3 mps 754 mmHg 43%
    15:00 +33°C° 0 mm 3 mps 754 mmHg 47%
    16:00 +32°C° 0 mm 4 mps 754 mmHg 51%
    17:00 +30°C° 0 mm 4 mps 754 mmHg 55%
    18:00 +28°C° 0 mm 3 mps 754 mmHg 65%
    19:00 +26°C° 0 mm 3 mps 754 mmHg 76%
    20:00 +22°C° 0 mm 3 mps 754 mmHg 86%
    21:00 +21°C° 0 mm 2 mps 755 mmHg 88%
    22:00 +21°C° 0 mm 2 mps 755 mmHg 89%
    23:00 +20°C° 0 mm 2 mps 755 mmHg 90%

    29 June, Thursday

    Time Temperature Precipitation Wind Pressure Humidity
    00:00 +21°C° 0 mm 1 mps 755 mmHg 90%
    01:00 +20°C° 0 mm 1 mps 755 mmHg 89%
    02:00 +20°C° 0 mm 1 mps 755 mmHg 88%
    03:00 +20°C° 0 mm 1 mps 755 mmHg 88%
    04:00 +20°C° 0 mm 1 mps 755 mmHg 88%
    05:00 +20°C° 0 mm 1 mps 755 mmHg 88%
    06:00 +23°C° 0 mm 1 mps 755 mmHg 78%
    07:00 +26°C° 0 mm 1 mps 755 mmHg 68%
    08:00 +29°C° 0 mm 1 mps 756 mmHg 59%
    09:00 +30°C° 0 mm 2 mps 756 mmHg 54%
    10:00 +32°C° 0 mm 2 mps 756 mmHg 49%
    11:00 +35°C° 0 mm 2 mps 756 mmHg 44%
    12:00 +35°C° 0 mm 3 mps 756 mmHg 43%
    13:00 +36°C° 0 mm 3 mps 756 mmHg 42%
    14:00 +36°C° 0 mm 4 mps 755 mmHg 40%
    15:00 +35°C° 0 mm 4 mps 755 mmHg 43%
    16:00 +34°C° 0 mm 4 mps 755 mmHg 46%
    17:00 +33°C° 0 mm 5 mps 755 mmHg 49%
    18:00 +30°C° 0 mm 4 mps 755 mmHg 58%
    19:00 +27°C° 0 mm 4 mps 756 mmHg 68%
    20:00 +25°C° 0 mm 3 mps 756 mmHg 77%
    21:00 +24°C° 0 mm 3 mps 756 mmHg 79%
    22:00 +22°C° 0 mm 3 mps 756 mmHg 81%
    23:00 +23°C° 0 mm 2 mps 756 mmHg 83%

    30 June, Friday

    Time Temperature Precipitation Wind Pressure Humidity
    00:00 +21°C° 0 mm 2 mps 756 mmHg 83%
    01:00 +21°C° 0 mm 2 mps 756 mmHg 83%
    02:00 +21°C° 0 mm 1 mps 756 mmHg 83%
    03:00 +21°C° 0 mm 1 mps 756 mmHg 82%
    04:00 +21°C° 0 mm 1 mps 756 mmHg 81%
    05:00 +21°C° 0 mm 1 mps 756 mmHg 80%
    06:00 +24°C° 0 mm 2 mps 757 mmHg 70%
    07:00 +27°C° 0 mm 2 mps 757 mmHg 60%
    08:00 +30°C° 0 mm 2 mps 757 mmHg 50%
    09:00 +32°C° 0 mm 2 mps 757 mmHg 46%
    10:00 +34°C° 0 mm 3 mps 757 mmHg 42%
    11:00 +36°C° 0 mm 3 mps 757 mmHg 38%
    12:00 +37°C° 0 mm 3 mps 757 mmHg 37%
    13:00 +37°C° 0 mm 4 mps 757 mmHg 37%
    14:00 +37°C° 0 mm 4 mps 757 mmHg 36%
    15:00 +37°C° 0 mm 4 mps 757 mmHg 38%
    16:00 +36°C° 0 mm 4 mps 756 mmHg 41%
    17:00 +35°C° 0 mm 4 mps 756 mmHg 43%
    18:00 +32°C° 0 mm 4 mps 756 mmHg 52%
    19:00 +28°C° 0 mm 3 mps 756 mmHg 62%
    20:00 +26°C° 0 mm 3 mps 756 mmHg 71%
    21:00 +25°C° 0 mm 3 mps 757 mmHg 74%
    22:00 +24°C° 0 mm 2 mps 757 mmHg 76%
    23:00 +23°C° 0 mm 2 mps 757 mmHg 79%
    Show more